This demonstration page uses our WeatherBlox Daily Observations layout. Learn more.

Left ArrowRight Arrow

Hourly Observations for August 13, 2015

Temp ( °F °C ) Dew Point ( °F °C ) Humidity (%) Winds ( mph kmh ) Pressure ( in mb ) Visibility ( mi km ) Precip ( " mm )
12:53 am 00:53 Clear 68 20 47 8.3 47 47 WNW 3 6 29.97 1015 10 16 0.00 0.00
1:53 am 01:53 Clear 67 19.4 45 7.2 45 45 N 3 6 29.97 1015 10 16 0.00 0.00
2:53 am 02:53 Clear 68 20 47 8.3 47 47 NNW 7 11 29.97 1015 10 16 0.00 0.00
3:53 am 03:53 Clear 68 20 48 8.9 49 49 NNW 5 7 29.97 1015 10 16 0.00 0.00
4:53 am 04:53 Clear 64 17.8 47 8.3 54 54 Calm 29.98 1015 10 16 0.00 0.00
5:53 am 05:53 Clear 62 16.7 46 7.8 56 56 Calm 29.98 1015 10 16 0.00 0.00
6:53 am 06:53 Sunny 62 16.7 47 8.3 58 58 Calm 29.99 1016 10 16 0.00 0.00
7:53 am 07:53 Sunny 67 19.4 48 8.9 51 51 Calm 30.00 1016 10 16 0.00 0.00
8:53 am 08:53 Sunny 74 23.3 49 9.4 41 41 Calm 30.00 1016 10 16 0.00 0.00
9:53 am 09:53 Sunny 77 25 48 8.9 36 36 SW 5 7 29.99 1016 10 16 0.00 0.00
10:53 am 10:53 Sunny 81 27.2 48 8.9 32 32 Calm 29.98 1015 10 16 0.00 0.00
11:53 am 11:53 Sunny 86 30 47 8.3 26 26 Calm 29.96 1015 10 16 0.00 0.00
12:53 pm 12:53 Sunny 88 31.1 44 6.7 22 22 VRB 5 7 29.94 1014 10 16 0.00 0.00
1:53 pm 13:53 Sunny 92 33.3 42 5.6 18 18 SW 7 11 29.92 1013 10 16 0.00 0.00
2:53 pm 14:53 Sunny 94 34.4 43 6.1 17 17 SSE 13 20 29.89 1012 10 16 0.00 0.00
3:53 pm 15:53 Sunny 94 34.4 42 5.6 17 17 SSE 15 24 29.87 1011 10 16 0.00 0.00
4:53 pm 16:53 Sunny 95 35 37 2.8 13 13 SSE 22 35 29.85 1011 10 16 0.00 0.00
5:53 pm 17:53 Sunny 94 34.4 38 3.3 14 14 S 16 26 29.83 1010 10 16 0.00 0.00
6:53 pm 18:53 Sunny 91 32.8 42 5.6 18 18 S 17 28 29.83 1010 10 16 0.00 0.00
7:53 pm 19:53 Sunny 88 31.1 45 7.2 22 22 S 10 17 29.84 1010 10 16 0.00 0.00
8:53 pm 20:53 Clear 86 30 47 8.3 26 26 SSW 8 13 29.85 1011 10 16 0.00 0.00
9:53 pm 21:53 Clear 83 28.3 48 8.9 30 30 VRB 3 6 29.88 1012 10 16 0.00 0.00
10:53 pm 22:53 Clear 81 27.2 45 7.2 28 28 S 7 11 29.88 1012 10 16 0.00 0.00
11:53 pm 23:53 Clear 73 22.8 44 6.7 35 35 W 3 6 29.90 1013 10 16 0.00 0.00

Powered by AerisWeather